CAPE
0 0 0 0 0 0 0 0 0 0 0 0 0 0 0 0 0 0 0 0 0 0 0 0 0 0 0 0 0 0 0 0 1 3 3 1 1 4
0 0 0 0 0 0 0 0 0 0 0 0 0 0 0 0 0 0 0 0 0 0 0 0 0 0 0 0 0 0 0 0 0 0 0 1 0 2
1 1 0 0 0 0 0 0 0 0 0 0 0 0 0 0 0 0 0 0 0 0 0 0 0 0 0 0 0 0 0 0 0 0 0 0 0 2
30 0 5 2 0 0 0 0 0 0 0 0 0 0 0 0 0 0 0 0 0 0 0 0 0 0 0 0 0 0 0 0 0 0 0 0 0 0
0 5 2 23 2 0 0 0 0 0 0 0 0 0 0 0 0 0 0 0 0 0 0 0 0 0 0 0 0 0 0 0 0 0 0 0 0 0
0 3 19 37 7 0 0 0 0 0 0 0 0 0 0 0 0 0 0 0 0 0 0 0 0 0 0 0 0 0 0 0 0 0 0 0 0 0
0 1 2 1 0 1 0 0 0 0 0 0 0 0 0 0 0 0 0 0 0 0 0 0 0 0 0 0 0 0 0 0 0 0 0 0 0 0
1 3 4 3 0 0 0 0 0 0 0 0 0 0 0 0 0 0 0 0 0 0 0 0 0 0 0 0 0 0 0 0 0 0 0 0 0 0
5 6 5 4 3 4 0 0 0 0 0 0 0 0 0 0 0 0 0 0 0 0 0 0 0 0 0 0 0 0 0 0 0 0 0 0 0 0
3 3 4 3 2 2 0 0 0 0 0 0 0 0 0 0 0 0 0 0 0 0 0 0 0 0 0 0 0 0 0 0 0 0 0 0 0 0
0 0 2 2 1 1 2 1 1 2 0 0 0 0 0 0 0 0 0 0 0 0 0 0 0 0 0 0 0 0 0 0 0 0 0 0 0 0
0 0 0 0 0 0 2 3 1 4 1 0 0 0 0 0 0 0 0 0 0 0 0 0 0 0 0 0 0 0 0 0 0 0 0 0 0 0
0 0 0 0 0 0 0 1 2 0 0 0 0 0 0 0 0 0 0 0 0 0 0 0 0 0 0 0 0 0 0 0 0 0 0 0 0 0
0 0 0 0 0 0 0 0 0 0 0 0 0 0 0 0 1 0 0 0 0 0 0 0 0 0 0 0 0 0 0 0 0 0 0 0 1 2
0 0 0 0 0 0 0 0 0 0 0 0 0 1 1 2 1 0 0 0 0 0 0 0 0 0 0 0 0 0 0 0 0 0 0 0 0 5
0 0 0 0 0 0 0 0 0 0 1 1 0 0 0 0 0 1 1 1 0 0 3 1 0 0 0 0 0 0 0 0 0 0 0 2 3 3
0 0 0 0 0 0 0 0 0 0 0 0 1 0 0 0 0 0 0 1 0 0 0 3 4 2 0 0 0 0 0 0 0 0 3 1 4 3
0 0 1 0 0 0 0 0 0 0 0 0 0 0 1 0 0 0 0 0 0 0 0 2 4 2 1 1 1 0 0 0 0 2 3 0 0 3
0 1 1 1 1 1 0 0 0 0 0 0 0 0 0 0 0 0 0 0 0 0 0 0 0 1 0 0 2 5 0 0 0 0 3 3 0 0
0 1 1 1 1 1 1 1 0 0 0 0 0 0 0 0 0 0 1 0 0 0 0 0 0 0 1 0 0 3 2 1 1 0 1 2 4 4
0 0 0 0 0 0 1 1 1 1 0 0 0 0 0 0 0 0 0 0 1 1 0 0 0 0 0 0 0 0 2 0 0 1 3 2 1 1
1 0 0 0 0 0 1 1 1 1 1 1 0 0 0 0 0 0 0 0 0 0 1 0 0 0 0 0 0 0 0 2 0 0 0 0 0 0
0 0 0 1 1 1 1 1 1 1 2 2 1 1 0 0 0 0 0 0 0 0 0 0 0 0 0 0 0 0 0 0 1 1 1 0 0 0
CIN
0 0 0 0 0 0 0 0 0 0 0 0 0 0 0 0 0 0 0 0 0 0 0 0 0 0 0 0 0 0 0 0 0 -1 -2 0 -2 -2
0 0 0 0 0 0 0 0 0 0 0 0 0 0 0 0 0 0 0 0 0 0 0 0 0 0 0 0 0 0 0 0 0 0 0 -3 0 -2
-1 -37 0 0 0 0 0 0 0 0 0 0 0 0 0 0 0 0 0 0 0 0 0 0 0 0 0 0 0 0 0 0 0 0 0 0 0 -4
0 -24 -123 -96 0 0 0 0 0 0 0 0 0 0 0 0 0 0 0 0 0 0 0 0 0 0 0 0 0 0 0 0 0 0 0 0 0 0
0 -4 -22 -83 -4 0 0 0 0 0 0 0 0 0 0 0 0 0 0 0 0 0 0 0 0 0 0 0 0 0 0 0 0 0 0 0 0 0
0 -1 -25 -32 -55 -2 0 0 0 0 0 0 0 0 0 0 0 0 0 0 0 0 0 0 0 0 0 0 0 0 0 0 0 0 0 0 0 0
0 0 0 0 0 -6 0 0 0 0 0 0 0 0 0 0 0 0 0 0 0 0 0 0 0 0 0 0 0 0 0 0 0 0 0 0 0 0
0 0 0 0 0 0 0 0 0 0 0 0 0 0 0 0 0 0 0 0 0 0 0 0 0 0 0 0 0 0 0 0 0 0 0 0 0 0
0 0 0 0 0 0 0 0 0 0 0 0 0 0 0 0 0 0 0 0 0 0 0 0 0 0 0 0 0 0 0 0 0 0 0 0 0 0
0 0 0 0 0 0 0 0 0 0 0 0 0 0 0 0 0 0 0 0 0 0 0 0 0 0 0 0 0 0 0 0 0 0 0 0 0 0
0 0 0 0 0 0 0 0 0 0 0 0 0 0 0 0 0 0 0 0 0 0 0 0 0 0 0 0 0 0 0 0 0 0 0 0 0 0
0 0 0 0 0 0 0 0 0 0 0 0 0 0 0 0 0 0 0 0 0 0 0 0 0 0 0 0 0 0 0 0 0 0 0 0 0 0
0 0 0 0 0 0 0 0 0 0 0 0 0 0 0 0 0 0 0 0 0 0 0 0 0 0 0 0 0 0 0 0 0 0 0 0 0 0
0 0 0 0 0 0 0 0 0 0 0 0 0 0 0 0 0 0 0 0 0 0 0 0 0 0 0 0 0 0 0 0 0 0 0 0 0 0
0 0 0 0 0 0 0 0 0 0 0 0 0 0 0 0 0 0 0 0 0 0 0 0 0 0 0 0 0 0 0 0 0 0 0 0 0 0
0 0 0 0 0 0 0 0 0 0 0 0 0 0 0 0 0 0 0 0 0 0 0 0 0 0 0 0 0 0 0 0 0 0 0 0 0 0
0 0 0 0 0 0 0 0 0 0 0 0 0 0 0 0 0 0 0 0 0 0 0 0 0 0 0 0 0 0 0 0 0 0 0 0 0 0
0 0 0 0 0 0 0 0 0 0 0 0 0 0 0 0 0 0 0 0 0 0 0 0 0 0 0 0 0 0 0 0 0 0 0 0 0 0
0 0 0 0 0 0 0 0 0 0 0 0 0 0 0 0 0 0 0 0 0 0 0 0 0 0 0 0 0 0 0 0 0 0 0 0 0 0
0 0 0 0 0 0 0 0 0 0 0 0 0 0 0 0 0 0 0 0 0 0 0 0 0 0 0 0 0 0 0 0 0 0 0 0 0 0
0 0 0 0 0 0 0 0 0 0 0 0 0 0 0 0 0 0 0 0 0 0 0 0 0 0 0 0 0 0 0 0 0 0 0 0 0 0
0 0 0 0 0 0 0 0 0 0 0 0 0 0 0 0 0 0 0 0 0 0 0 0 0 0 0 0 0 0 0 0 0 0 0 0 0 0
0 0 0 0 0 0 0 0 0 0 0 0 0 0 0 0 0 0 0 0 0 0 0 0 0 0 0 0 0 0 0 0 0 0 0 0 0 0
Wind_Speed
52 52 50 49 47 45 41 38 36 38 43 41 36 26 28 29 27 20 19 18 25 24 24 24 23 20 17 15 14 13 12 11 11 10 9 8 8 6
53 54 54 51 50 47 48 43 40 38 43 39 39 31 28 31 30 26 22 21 18 21 22 24 24 23 21 18 17 16 15 14 13 12 12 11 10 8
56 55 55 53 52 50 51 48 47 42 45 37 35 34 31 30 30 29 28 25 23 19 20 20 21 22 22 21 20 19 18 17 16 15 14 14 13 11
52 60 57 54 56 52 53 56 53 48 45 44 35 33 33 31 29 28 29 27 25 23 20 19 20 21 21 22 23 23 21 20 19 19 17 16 15 14
44 58 56 54 55 54 53 57 54 51 49 45 41 34 34 32 32 30 27 26 26 25 23 22 22 22 22 23 23 24 25 24 24 22 21 20 19 18
36 39 55 55 55 54 53 55 55 53 51 51 45 41 39 35 33 33 33 29 26 26 24 24 24 23 23 24 26 26 26 26 25 25 24 23 22 21
23 24 25 34 45 56 53 54 54 54 51 52 50 45 42 40 38 35 36 33 32 30 30 29 28 27 27 25 27 29 29 28 27 26 26 25 25 24
22 27 23 27 33 44 51 52 51 53 53 51 50 51 46 43 40 39 37 38 41 32 32 36 30 30 28 26 25 30 29 28 28 28 28 27 26 25
15 22 22 24 28 35 39 51 52 50 50 49 50 49 47 42 40 39 39 40 42 35 32 40 33 33 28 26 24 30 30 29 29 28 27 27 27 26
15 19 21 25 28 33 37 38 49 52 49 47 47 47 46 43 41 40 40 43 44 40 35 38 33 34 30 27 26 26 28 28 29 29 28 27 27 28
18 19 20 20 25 28 32 35 38 49 46 49 46 44 43 42 39 40 43 42 45 43 36 37 36 36 34 33 31 28 29 30 30 31 30 29 29 30
19 19 21 22 22 21 23 29 36 36 42 45 47 48 45 43 40 40 41 44 43 44 38 38 37 36 42 37 35 34 33 32 30 30 31 30 30 31
20 22 22 23 21 22 22 22 29 34 37 41 46 47 49 47 44 43 43 43 44 45 37 32 36 35 37 38 34 34 32 32 32 34 32 32 32 32
22 21 23 23 20 19 19 21 24 26 29 33 39 45 47 48 49 47 47 45 43 42 37 33 37 33 33 36 39 36 35 33 32 33 32 34 33 32
21 21 22 22 20 20 20 21 21 23 26 28 32 34 37 42 44 45 46 45 44 42 39 36 37 35 35 37 38 39 40 37 35 36 37 35 35 34
22 22 21 20 20 20 21 21 22 23 24 26 27 31 33 33 35 39 43 44 45 45 41 41 39 37 38 36 38 40 37 38 34 34 35 34 31 31
22 22 21 21 22 22 22 22 22 23 23 24 28 29 28 30 33 33 38 41 45 44 43 40 38 38 39 39 41 38 40 41 37 34 33 33 33 31
22 23 22 23 23 23 23 23 23 24 24 25 25 27 28 28 29 30 30 32 36 38 40 39 37 37 37 36 34 37 38 37 32 30 33 34 32 27
23 23 24 24 24 24 24 24 25 27 26 26 27 28 28 28 29 31 32 32 33 34 33 32 35 36 39 42 36 31 35 34 32 33 33 33 33 32
24 25 25 25 25 26 26 26 27 28 28 28 29 28 28 29 31 32 33 33 33 34 35 34 33 34 36 37 36 33 30 34 32 31 30 30 30 27
27 26 26 26 26 27 27 27 28 28 28 29 29 30 30 30 32 32 33 34 35 37 38 36 34 33 28 29 33 33 30 27 27 29 28 29 31 32
27 27 27 27 27 28 28 28 29 29 29 30 30 30 31 31 32 32 33 34 34 35 36 36 34 32 33 36 37 32 30 27 24 23 24 25 28 32
28 28 28 28 28 29 29 29 29 30 31 31 31 32 32 32 32 32 32 33 33 36 37 36 34 33 36 36 36 36 34 32 30 28 26 27 28 27
Wind_Direction
238 238 236 237 238 239 237 236 240 243 244 245 247 241 246 250 250 241 217 218 207 210 212 211 211 214 219 225 225 229 232 234 229 222 222 222 223 230
239 238 236 237 237 238 238 238 240 244 247 247 247 254 246 250 252 250 248 250 234 218 216 213 213 216 219 225 227 229 233 238 234 230 235 236 238 239
238 237 237 236 237 238 238 238 239 241 246 251 253 252 251 252 252 251 254 255 260 234 224 224 223 222 225 230 233 235 232 235 237 231 235 236 241 242
249 236 236 236 236 238 237 237 238 241 244 247 250 251 252 253 254 253 253 256 258 258 241 241 236 233 233 231 235 237 236 234 235 232 237 239 245 249
264 239 234 236 236 236 237 237 238 240 242 247 249 253 254 253 256 258 255 258 259 259 258 256 252 249 247 241 241 242 240 238 233 235 237 240 242 246
262 260 233 236 236 236 238 237 237 239 241 243 247 249 251 255 255 256 259 259 258 262 264 266 266 261 258 253 250 246 245 241 238 240 241 245 245 247
268 262 247 239 243 238 237 237 236 237 240 241 245 247 248 251 249 256 260 262 263 264 269 270 272 273 272 264 261 260 255 251 251 248 246 248 247 247
269 260 266 248 252 248 242 237 234 235 238 241 242 245 248 250 252 254 256 260 263 264 268 273 272 274 274 270 260 262 259 255 256 253 253 251 249 248
298 280 270 274 264 255 247 240 238 235 237 240 242 245 248 248 251 254 255 258 263 268 267 274 274 273 273 269 253 264 264 261 260 256 252 251 251 249
315 309 287 272 273 263 255 248 243 238 238 240 244 247 250 251 251 254 257 262 265 267 268 271 274 274 274 270 255 253 263 262 261 260 256 253 250 255
314 310 308 294 283 275 259 250 249 240 243 244 246 248 250 251 252 255 255 258 262 265 265 270 272 275 275 271 270 262 262 266 264 263 261 259 259 263
311 307 304 299 287 289 272 258 251 254 248 248 248 249 251 251 250 251 254 255 260 266 268 268 272 274 275 275 272 270 272 271 267 265 263 260 263 270
304 301 307 300 300 289 281 280 263 261 257 253 251 252 250 252 253 252 253 256 259 263 269 268 271 270 271 276 277 274 272 275 273 273 268 266 266 264
303 304 300 300 303 300 293 288 282 275 266 260 256 253 254 252 253 255 255 258 260 263 267 262 270 267 270 272 273 275 276 277 277 275 275 276 270 266
307 302 301 302 306 295 293 292 291 284 274 267 260 258 260 258 259 259 260 258 261 262 262 259 263 266 267 271 275 276 279 279 276 277 277 276 273 272
314 307 304 306 303 302 296 293 290 288 283 275 272 267 266 267 265 263 260 258 258 260 264 263 260 263 265 270 272 276 277 278 282 279 277 274 276 275
316 311 313 307 302 302 299 296 296 291 287 285 277 273 273 269 268 270 265 263 262 260 261 264 265 264 268 268 270 271 275 277 280 279 275 277 277 275
321 316 311 306 299 301 299 295 292 293 289 288 284 279 276 274 273 271 274 271 267 266 264 265 265 265 267 271 272 274 273 272 275 276 275 277 279 276
322 315 309 304 302 301 301 300 295 289 291 289 284 282 281 279 275 272 273 273 269 269 270 273 270 266 263 266 273 279 270 271 273 275 275 275 278 276
320 312 307 304 303 300 302 300 297 295 292 289 287 287 285 281 278 274 273 272 271 272 273 274 275 273 268 269 269 276 281 272 271 272 272 275 279 280
317 315 312 308 306 304 302 302 298 295 294 291 289 288 287 286 281 279 278 275 274 272 272 273 274 274 276 275 272 275 280 283 277 275 273 271 272 274
318 318 316 316 311 308 303 301 298 297 295 294 292 291 289 287 285 283 280 278 277 275 274 273 274 273 272 271 270 272 277 279 283 283 280 276 274 272
316 316 318 318 315 312 310 306 304 299 297 294 293 292 290 288 286 285 283 281 280 276 275 275 274 273 272 272 271 271 271 271 272 276 281 283 279 281